TimeMST,TemperatureF,Dew PointF,Humidity,Sea Level PressureIn,VisibilityMPH,Wind Direction,Wind SpeedMPH,Gust SpeedMPH,PrecipitationIn,Events,Conditions,WindDirDegrees,DateUTC
12:52 AM,3.9,-0.0,84,30.08,10.0,West,3.5,-,0.00,,Mostly Cloudy,280,2012-12-31 07:52:00
1:52 AM,6.1,1.9,83,30.05,10.0,Calm,Calm,-,N/A,,Overcast,0,2012-12-31 08:52:00
2:52 AM,3.0,-0.9,84,30.05,10.0,North,4.6,-,N/A,,Mostly Cloudy,10,2012-12-31 09:52:00
3:37 AM,1.4,-0.4,92,29.80,10.0,Calm,Calm,-,N/A,,Mostly Cloudy,0,2012-12-31 10:37:00
3:52 AM,3.9,1.0,88,30.02,10.0,North,4.6,-,N/A,,Overcast,350,2012-12-31 10:52:00
4:52 AM,6.1,3.0,87,30.00,10.0,Calm,Calm,-,N/A,,Overcast,0,2012-12-31 11:52:00
5:52 AM,7.0,3.0,84,30.02,10.0,Calm,Calm,-,N/A,,Overcast,0,2012-12-31 12:52:00
6:52 AM,8.6,3.2,79,29.78,3.0,SW,3.5,-,N/A,Snow,Light Snow,220,2012-12-31 13:52:00
7:05 AM,8.6,3.2,79,29.78,2.0,WSW,5.8,-,0.00,Snow,Light Snow,240,2012-12-31 14:05:00
7:13 AM,8.6,3.2,79,29.78,1.0,SW,4.6,-,0.00,Snow,Light Snow,230,2012-12-31 14:13:00
7:52 AM,8.1,3.9,83,30.07,0.8,Calm,Calm,-,0.01,Snow,Light Snow,0,2012-12-31 14:52:00
8:02 AM,6.8,3.2,85,29.79,1.8,South,3.5,-,0.00,Snow,Light Snow,170,2012-12-31 15:02:00
8:06 AM,6.8,3.2,85,29.79,3.0,South,3.5,-,0.00,Snow,Light Snow,170,2012-12-31 15:06:00
8:52 AM,9.0,5.0,84,30.10,10.0,Calm,Calm,-,0.00,,Overcast,0,2012-12-31 15:52:00
9:52 AM,14.0,9.0,80,30.09,10.0,Calm,Calm,-,N/A,,Overcast,0,2012-12-31 16:52:00
10:52 AM,17.1,10.9,77,30.02,10.0,Calm,Calm,-,N/A,,Overcast,0,2012-12-31 17:52:00
11:21 AM,17.6,10.4,73,29.80,4.0,Calm,Calm,-,0.00,Snow,Light Snow,0,2012-12-31 18:21:00
11:41 AM,17.6,12.2,79,29.79,2.0,Calm,Calm,-,0.00,Snow,Light Snow,0,2012-12-31 18:41:00
11:52 AM,18.0,12.0,78,29.98,4.0,Calm,Calm,-,0.00,,Haze,0,2012-12-31 18:52:00
12:52 PM,21.0,14.0,74,29.96,3.0,ENE,6.9,-,0.00,Snow,Light Snow,60,2012-12-31 19:52:00
1:02 PM,21.2,14.0,74,29.77,2.5,East,5.8,-,0.00,Snow,Light Snow,80,2012-12-31 20:02:00
1:27 PM,21.2,15.8,80,29.76,1.5,East,5.8,-,0.00,Snow,Light Snow,80,2012-12-31 20:27:00
1:42 PM,21.2,15.8,80,29.76,2.0,ENE,6.9,-,0.00,Snow,Light Snow,60,2012-12-31 20:42:00
1:45 PM,21.2,15.8,80,29.76,1.8,NE,6.9,-,0.00,Snow,Light Snow,50,2012-12-31 20:45:00
1:52 PM,21.0,15.1,78,29.94,1.5,NE,8.1,-,0.00,Snow,Light Snow,50,2012-12-31 20:52:00
2:08 PM,21.2,15.8,80,29.77,2.0,ENE,5.8,-,0.01,Snow,Light Snow,60,2012-12-31 21:08:00
2:23 PM,21.2,15.8,80,29.77,3.0,East,3.5,-,0.01,Snow,Light Snow,80,2012-12-31 21:23:00
2:37 PM,21.2,15.8,80,29.78,2.0,ENE,3.5,-,0.01,Snow,Light Snow,60,2012-12-31 21:37:00
2:44 PM,21.2,15.8,80,29.78,1.2,Calm,Calm,-,0.01,Snow,Light Snow,0,2012-12-31 21:44:00
2:52 PM,21.9,16.0,78,29.97,1.5,North,3.5,-,0.01,Snow,Light Snow,10,2012-12-31 21:52:00
3:17 PM,21.2,17.6,86,29.78,0.5,North,3.5,-,0.01,Fog-Snow,Snow,10,2012-12-31 22:17:00
3:30 PM,21.2,17.6,86,29.78,1.2,North,3.5,-,0.01,Snow,Light Snow,10,2012-12-31 22:30:00
3:47 PM,21.2,17.6,86,29.79,0.5,North,4.6,-,0.02,Fog-Snow,Snow,10,2012-12-31 22:47:00
3:52 PM,19.9,17.1,89,29.99,0.5,North,4.6,-,0.02,Fog-Snow,Snow,10,2012-12-31 22:52:00
4:07 PM,19.4,17.6,93,29.79,0.2,North,4.6,-,0.02,Fog-Snow,Snow,360,2012-12-31 23:07:00
4:52 PM,19.0,17.1,92,29.99,0.5,North,6.9,-,0.07,Fog-Snow,Snow,350,2012-12-31 23:52:00
5:22 PM,17.6,15.8,93,29.81,1.0,North,6.9,-,0.03,Snow,Light Snow,350,2013-01-01 00:22:00
5:34 PM,17.6,15.8,93,29.81,1.8,NNW,6.9,-,0.03,Snow,Light Snow,340,2013-01-01 00:34:00
5:52 PM,18.0,15.1,88,30.01,1.8,NNW,4.6,-,0.04,Snow,Light Snow,330,2013-01-01 00:52:00
6:52 PM,18.0,15.1,88,30.03,1.2,NNW,5.8,-,0.02,Snow,Light Snow,330,2013-01-01 01:52:00
7:17 PM,17.6,15.8,93,29.85,2.5,Calm,Calm,-,0.01,Snow,Light Snow,0,2013-01-01 02:17:00
7:39 PM,17.6,14.0,86,29.86,3.0,Calm,Calm,-,0.01,Snow,Light Snow,0,2013-01-01 02:39:00
7:52 PM,17.1,14.0,88,30.05,4.0,Calm,Calm,-,0.01,Snow,Light Snow,0,2013-01-01 02:52:00
8:07 PM,17.6,14.0,86,29.86,2.0,Calm,Calm,-,0.00,Snow,Light Snow,0,2013-01-01 03:07:00
8:18 PM,17.6,14.0,86,29.87,2.5,Calm,Calm,-,0.00,Snow,Light Snow,0,2013-01-01 03:18:00
8:29 PM,15.8,14.0,93,29.87,2.5,Calm,Calm,-,0.01,Snow,Light Snow,0,2013-01-01 03:29:00
8:47 PM,15.8,14.0,93,29.88,4.0,Calm,Calm,-,0.01,Snow,Light Snow,0,2013-01-01 03:47:00
8:52 PM,16.0,14.0,92,30.07,4.0,Calm,Calm,-,0.01,Snow,Light Snow,0,2013-01-01 03:52:00
9:06 PM,15.8,12.2,86,29.88,2.5,Calm,Calm,-,0.00,Snow,Light Snow,0,2013-01-01 04:06:00
9:10 PM,15.8,12.2,86,29.88,3.0,Calm,Calm,-,0.00,Snow,Light Snow,0,2013-01-01 04:10:00
9:40 PM,15.8,12.2,86,29.88,2.5,Calm,Calm,-,0.00,Snow,Light Snow,0,2013-01-01 04:40:00
9:52 PM,12.9,10.9,92,30.07,2.0,Calm,Calm,-,0.00,,Overcast,0,2013-01-01 04:52:00
9:59 PM,12.2,10.4,92,29.89,1.8,Calm,Calm,-,0.00,Snow,Light Snow,0,2013-01-01 04:59:00
10:05 PM,12.2,10.4,92,29.89,3.0,Calm,Calm,-,0.01,,Overcast,0,2013-01-01 05:05:00
10:20 PM,12.2,10.4,92,29.90,3.0,Calm,Calm,-,0.01,,Mostly Cloudy,0,2013-01-01 05:20:00
10:22 PM,12.2,10.4,92,29.90,1.5,SSW,3.5,-,0.01,,Mostly Cloudy,210,2013-01-01 05:22:00
10:52 PM,7.0,7.0,100,30.12,0.5,Calm,Calm,-,0.01,Fog,Light Freezing Fog,0,2013-01-01 05:52:00
11:52 PM,6.1,5.0,95,30.12,0.5,Calm,Calm,-,N/A,Fog,Light Freezing Fog,0,2013-01-01 06:52:00